STARLINK-1527, 46048

Orbit data source: Space-Track

STARLINK-1527, 46048 is a payload satellite owned by SpaceX/Seattle (US) in LEO that was launched on Fri, 07 Aug 2020 UTC via an FALCON 9 launch vehicle from the Air Force Eastern Test Range (AFETR). Payload-class satellites include a variety of spacecraft equipped with specific instruments for various scientific and technological missions. These include communications satellites like Starlink; space stations such as the ISS; scientific satellites like the Hubble; Earth observation satellites from companies like Planet Labs, Umbra, and HawkEye 360; GPS; miniature CubeSats for education and research; and military/defense satellites.

Loading next visibility...
Identifier
46048, 2020-055X
Orbit
LEO
Country
Flag of USUS
Related business
Manufacturer
SpaceX/Seattle
Mission
Operational Commercial Communications
Bus & Motor
STARLINK, Unknown motor
Mass
260 kg wet, ~248 kg dry
Launch date (UTC)
2020-08-07 (5 years ago)
Launch vehicle
FALCON 9
Launch site
Air Force Eastern Test Range (AFETR)
Object type
Payload
Rocket body
Debris
Shape & HBR
Box + 1 Pan, 10.1 m
Radar Cross Section
13.562 m², Large (>1 m²)

Expand to show TLE details & history
Last TLE update: 23 hours ago

TLE from 23 hours ago
0 STARLINK-1527
1 46048U 20055X   25340.25070669  .00002305  00000-0  17352-3 0  9994
2 46048  53.0540 176.0787 0001252  66.7877 293.3243 15.06410854294924
Epoch: 2025-12-06T06:01Z
TLE epoch observation values (Epoch: 2025-12-06T06:01:01.058Z)
Latitude
-0.00006°
Longitude
10.54311°
Altitude
547.714 km
Speed
7.59 km/s
True Right ascension
11h 44m 18s
True Declination
0° 00' 00"
Sunlit
Object was in daylight at epoch
Visualization orbit readout
Latitude
Unknown
Longitude
Unknown
Altitude
Unknown
Speed
Unknown
Apparent Right ascension
Unknown
Apparent Declination
Unknown
Sunlit
N/A
Visualization observer readout
Local Sidereal Time
03:11:02
Azimuth
Unknown
Elevation
Unknown
Doppler factor
Unknown
Orbital elements
Apogee altitude
548.316 km
Perigee altitude
546.582 km
Semi-major axis
6,925.586 km
Eccentricity
0.00013
Inclination
53.054°
RAAN
176.0787°
Arg. of periapsis
66.7877°
True anomaly
293.31112°
Mean anomaly
293.3243°
Eccentric anomaly
293.31771°
Mean motion
3.76581 °/min
Orbital period
95.6 mins
BSTAR
0.00017352
Loading maneuver chart data...
Computing Atmospheric mass density...

Documentation

Showing up to 5 results
|